Location: Newark
(20.4406°S, 50.8231°W)
Time: 18:14:19
(UTC+00:00)

N. Korean satellite - Visible Passes

Search period start: 15 September 2019 00:00
Search period end: 25 September 2019 00:00
Orbit: 455 x 508 km, 97.2° (Epoch: 15 September)

Date Brightness Start Highest point End Pass type
(mag) Time Alt. Az. Time Alt. Az. Time Alt. Az.
15 Sep 10.3 22:10:43 10° SW 22:11:50 11° WSW 22:12:57 10° W visible
16 Sep 7.6 08:33:05 10° NNE 08:36:26 49° ESE 08:39:54 10° S visible
16 Sep 9.3 21:43:41 10° SSW 21:46:49 25° WSW 21:49:54 10° NW visible
17 Sep 9.5 08:08:46 10° ENE 08:11:22 20° ESE 08:14:01 10° SSE visible
19 Sep 6.5 08:50:39 10° N 08:54:08 79° WNW 08:57:43 10° SSW visible
19 Sep 10.0 22:02:26 10° SW 22:04:27 14° WSW 22:06:26 10° WNW visible
20 Sep 8.2 08:25:44 10° NE 08:29:00 37° ESE 08:32:21 10° S visible
21 Sep 9.8 08:01:44 10° ENE 08:03:56 16° ESE 08:06:10 10° SE visible
23 Sep 6.8 08:43:07 10° NNE 08:46:38 78° E 08:50:17 10° S visible
23 Sep 9.9 21:54:29 10° SSW 21:57:01 18° WSW 21:59:32 10° WNW visible
24 Sep 8.8 08:18:25 10° NE 08:21:31 29° ESE 08:24:42 10° SSE visible
